Weather History for Dothan, AL

Change the Weather History Date:

Sunday, December 22, 2013

  Actual Average Record
Temperature  
Mean Temperature 71 °F 50 °F  
Max Temperature 82 °F 61 °F 82 °F (2013)
Min Temperature 59 °F 39 °F 19 °F (1960)
Degree Days  
Heating Degree Days 0 15  
Month to date heating degree days 187 293  
Since 1 July heating degree days 487 570  
Cooling Degree Days 4    
Growing Degree Days 20 (Base 50)    
Moisture  
Dew Point 66 °F    
Average Humidity 88    
Maximum Humidity 100    
Minimum Humidity 65    
Precipitation  
Precipitation 1.39 in 0.12 in 1.68 in (1953)
Month to date precipitation 4.23 3.46  
Year to date precipitation 73.50 53.04  
Sea Level Pressure  
Sea Level Pressure 30.03 in    
Wind  
Wind Speed 14 mph (SSW)    
Max Wind Speed 21 mph    
Max Gust Speed 32 mph    
Visibility 8 miles    
Events Rain , Thunderstorm    
T = Trace of Precipitation, MM = Missing Value Source: NWS Daily Summary

Daily Weather History Graph

Daily Weather History Graph

Search for Another Location

Airport:

Trip Planner

Search our weather history database for the weather conditions in past years. The results will help you decide how hot, cold, wet, or windy it might be!

Date:

Astronomy

Dec. 22, 2013 Rise Set
Actual Time 6:37 AM CST 4:43 PM CST
Civil Twilight 6:10 AM CST 5:10 PM CST
Nautical Twilight 5:40 AM CST 5:41 PM CST
Astronomical Twilight 5:10 AM CST 6:10 PM CST
Moon 9:37 PM CST (12/22) 9:49 AM CST (12/22)
Length of Visible Light 11h 00m
Length of Day
10h 06m
Waning Gibbous, 76% of the Moon is Illuminated
Dec 22
Waning Gibbous
Dec 25
Last Quarter
Jan 1
New
Jan 7
First Quarter
Jan 15
Full

Hourly Weather History & Observations

Time (CST) Temp. Heat Index Dew Point Humidity Pressure Visibility Wind Dir Wind Speed Gust Speed Precip Events Conditions
12:43 AM 71.6 °F - 68.0 °F 88% 29.99 in 10.0 mi South 15.0 mph - N/A   Overcast
12:53 AM 72.0 °F - 68.0 °F 87% 29.99 in 10.0 mi South 15.0 mph 23.0 mph N/A   Overcast
1:05 AM 71.6 °F - 68.0 °F 88% 30.01 in 10.0 mi South 13.8 mph - N/A   Overcast
1:53 AM 72.0 °F - 68.0 °F 87% 30.00 in 10.0 mi South 15.0 mph - 0.00 in Rain Light Rain
2:19 AM 71.6 °F - 68.0 °F 88% 30.01 in 10.0 mi South 10.4 mph - 0.00 in   Overcast
2:26 AM 71.6 °F - 68.0 °F 88% 30.01 in 10.0 mi South 11.5 mph - 0.00 in   Overcast
2:44 AM 71.6 °F - 68.0 °F 88% 30.00 in 10.0 mi South 11.5 mph - 0.00 in   Overcast
2:53 AM 71.1 °F - 68.0 °F 90% 29.98 in 10.0 mi South 15.0 mph - 0.00 in   Overcast
3:18 AM 71.6 °F - 68.0 °F 88% 29.98 in 10.0 mi South 13.8 mph - N/A   Overcast
3:29 AM 71.6 °F - 68.0 °F 88% 29.97 in 10.0 mi South 15.0 mph 23.0 mph N/A   Overcast
3:53 AM 71.1 °F - 68.0 °F 90% 29.96 in 10.0 mi South 12.7 mph - N/A   Overcast
4:22 AM 71.6 °F - 68.0 °F 88% 29.98 in 10.0 mi South 12.7 mph - N/A   Overcast
4:30 AM 71.6 °F - 68.0 °F 88% 29.98 in 10.0 mi South 11.5 mph - N/A   Overcast
4:53 AM 71.1 °F - 68.0 °F 90% 29.97 in 10.0 mi South 11.5 mph - N/A   Overcast
5:53 AM 72.0 °F - 68.0 °F 87% 29.98 in 10.0 mi South 11.5 mph - N/A   Mostly Cloudy
6:37 AM 71.6 °F - 68.0 °F 88% 30.00 in 10.0 mi South 12.7 mph - N/A   Overcast
6:53 AM 72.0 °F - 68.0 °F 87% 30.00 in 10.0 mi South 11.5 mph 19.6 mph N/A   Overcast
7:44 AM 73.4 °F - 69.8 °F 88% 30.03 in 10.0 mi South 15.0 mph 19.6 mph N/A   Overcast
7:53 AM 73.0 °F - 69.1 °F 87% 30.01 in 10.0 mi South 15.0 mph 21.9 mph N/A   Overcast
8:02 AM 73.4 °F - 69.8 °F 88% 30.04 in 10.0 mi South 15.0 mph - N/A   Overcast
8:18 AM 73.4 °F - 69.8 °F 88% 30.05 in 10.0 mi South 15.0 mph 19.6 mph N/A   Overcast
8:45 AM 73.4 °F - 69.8 °F 88% 30.05 in 10.0 mi South 11.5 mph - N/A   Overcast
8:53 AM 75.0 °F - 69.1 °F 82% 30.04 in 10.0 mi South 12.7 mph - N/A   Overcast
9:53 AM 78.1 °F - 70.0 °F 76% 30.04 in 10.0 mi South 17.3 mph - N/A   Mostly Cloudy
10:43 AM 73.4 °F - 71.6 °F 94% 30.05 in 2.5 mi SSW 16.1 mph 24.2 mph 0.04 in Rain Heavy Rain
10:48 AM 73.4 °F - 71.6 °F 94% 30.04 in 3.0 mi SSW 12.7 mph 23.0 mph 0.04 in Rain Light Rain
10:53 AM 75.0 °F - 72.0 °F 90% 30.03 in 9.0 mi SSW 12.7 mph - 0.04 in Rain Light Rain
11:03 AM 75.2 °F - 71.6 °F 89% 30.04 in 10.0 mi SSW 13.8 mph - 0.00 in   Overcast
11:10 AM 75.2 °F - 71.6 °F 89% 30.04 in 10.0 mi South 13.8 mph - 0.00 in   Overcast
11:53 AM 78.1 °F - 70.0 °F 76% 30.01 in 10.0 mi SSW 18.4 mph 32.2 mph 0.00 in   Overcast
12:18 PM 78.8 °F - 69.8 °F 74% 30.01 in 10.0 mi SSW 17.3 mph 25.3 mph N/A   Mostly Cloudy
12:53 PM 80.1 °F 82.9 °F 69.1 °F 69% 29.99 in 10.0 mi SSW 18.4 mph 24.2 mph N/A   Overcast
1:02 PM 80.6 °F 83.2 °F 68.0 °F 65% 30.00 in 10.0 mi SSW 19.6 mph 29.9 mph N/A   Mostly Cloudy
1:53 PM 80.1 °F 82.9 °F 69.1 °F 69% 29.98 in 10.0 mi South 15.0 mph - N/A   Mostly Cloudy
2:02 PM 78.8 °F - 68.0 °F 69% 29.99 in 10.0 mi South 20.7 mph 27.6 mph N/A   Mostly Cloudy
2:53 PM 78.1 °F - 69.1 °F 74% 29.98 in 10.0 mi SSW 19.6 mph 32.2 mph N/A   Overcast
3:48 PM 75.2 °F - 71.6 °F 89% 30.00 in 10.0 mi South 12.7 mph - 0.01 in   Overcast
3:53 PM 75.0 °F - 71.1 °F 87% 29.99 in 10.0 mi SSW 13.8 mph - 0.01 in   Overcast
4:45 PM 75.2 °F - 69.8 °F 83% 30.01 in 10.0 mi South 16.1 mph - N/A   Overcast
4:53 PM 73.9 °F - 70.0 °F 87% 29.99 in 10.0 mi South 13.8 mph - N/A   Overcast
5:22 PM 73.4 °F - 69.8 °F 88% 30.01 in 10.0 mi South 12.7 mph - N/A   Mostly Cloudy
5:53 PM 73.9 °F - 70.0 °F 87% 30.00 in 10.0 mi South 16.1 mph 24.2 mph N/A   Overcast
6:53 PM 73.9 °F - 70.0 °F 87% 30.01 in 10.0 mi South 15.0 mph 21.9 mph 0.00 in   Overcast
7:53 PM 73.9 °F - 70.0 °F 87% 30.02 in 10.0 mi South 19.6 mph 27.6 mph N/A   Overcast
8:13 PM 64.4 °F - 60.8 °F 88% 30.06 in 9.0 mi NW 13.8 mph 25.3 mph 0.00 in Rain Light Rain
8:21 PM 62.6 °F - 60.8 °F 94% 30.06 in 3.0 mi NNW 8.1 mph 20.7 mph 0.07 in Rain Heavy Rain
8:28 PM 62.6 °F - 60.8 °F 94% 30.07 in 2.5 mi NW 17.3 mph 23.0 mph 0.12 in Rain Heavy Rain
8:34 PM 62.6 °F - 60.8 °F 94% 30.08 in 3.0 mi NNW 16.1 mph 24.2 mph 0.14 in Rain Rain
8:46 PM 60.8 °F - 60.8 °F 100% 30.08 in 5.0 mi NNW 16.1 mph - 0.16 in Rain Heavy Rain
8:53 PM 61.0 °F - 60.1 °F 97% 30.06 in 5.0 mi North 15.0 mph - 0.17 in Rain Rain
9:00 PM 60.8 °F - 60.8 °F 100% 30.08 in 10.0 mi North 12.7 mph - 0.00 in Rain Light Rain
9:10 PM 60.8 °F - 60.8 °F 100% 30.09 in 10.0 mi NNW 9.2 mph - 0.01 in Rain Light Rain
9:45 PM 60.8 °F - 60.8 °F 100% 30.09 in 1.5 mi North 4.6 mph - 0.15 in Rain Heavy Rain
9:53 PM 61.0 °F - 60.1 °F 97% 30.07 in 1.2 mi North 9.2 mph - 0.32 in Rain Heavy Rain
10:08 PM 60.8 °F - 60.8 °F 100% 30.09 in 2.5 mi NNW 8.1 mph - 0.14 in Rain Heavy Rain
10:19 PM 60.8 °F - 59.0 °F 94% 30.09 in 8.0 mi NNW 8.1 mph - 0.15 in Rain Light Rain
10:53 PM 60.1 °F - 57.9 °F 93% 30.09 in 6.0 mi North 9.2 mph - 0.17 in Rain Light Rain
11:16 PM 59.0 °F - 57.2 °F 94% 30.10 in 2.5 mi NNW 10.4 mph - 0.07 in Rain Rain
11:21 PM 59.0 °F - 57.2 °F 94% 30.14 in 4.0 mi WNW 6.9 mph - 0.09 in Rain , Thunderstorm Light Thunderstorms and Rain
11:25 PM 59.0 °F - 57.2 °F 94% 30.10 in 2.5 mi NNW 15.0 mph - 0.18 in Rain , Thunderstorm Heavy Thunderstorms and Rain
11:33 PM 59.0 °F - 57.2 °F 94% 30.08 in 1.0 mi North 10.4 mph - 0.49 in Rain , Thunderstorm Heavy Thunderstorms and Rain
11:46 PM 59.0 °F - 57.2 °F 94% 30.09 in 2.0 mi North 10.4 mph - 0.64 in Rain Heavy Rain
11:53 PM 59.0 °F - 57.9 °F 96% 30.08 in 4.0 mi North 6.9 mph - 0.65 in Rain Rain